Time,TemperatureF,DewpointF,PressureIn,WindDirection,WindDirectionDegrees,WindSpeedMPH,WindSpeedGustMPH,Humidity,HourlyPrecipIn,Conditions,Clouds,dailyrainin,SoftwareType,DateUTC
2013-07-17 00:03:00,79.7,70.7,29.52,SSE,163,0.0,0.0,74,0.00,,---,0.00,VWS V12.08,2013-07-17 05:03:00,
2013-07-17 00:08:00,79.6,71.0,29.52,SSE,162,0.0,0.0,75,0.00,,---,0.00,VWS V12.08,2013-07-17 05:08:00,
2013-07-17 00:12:00,79.5,70.9,29.52,SSE,165,0.0,0.0,75,0.00,,---,0.00,VWS V12.08,2013-07-17 05:12:00,
2013-07-17 00:17:00,79.4,70.8,29.52,SSE,165,0.0,0.0,75,0.00,,---,0.00,VWS V12.08,2013-07-17 05:17:00,
2013-07-17 00:22:00,79.3,71.1,29.52,South,170,0.0,0.0,76,0.00,,---,0.00,VWS V12.08,2013-07-17 05:22:00,
2013-07-17 00:27:00,79.2,71.0,29.52,SSE,166,0.0,0.0,76,0.00,,---,0.00,VWS V12.08,2013-07-17 05:27:00,
2013-07-17 00:33:00,79.1,70.9,29.53,SSE,168,0.0,0.0,76,0.00,,---,0.00,VWS V12.08,2013-07-17 05:33:00,
2013-07-17 00:38:00,79.1,70.9,29.53,SSE,167,0.0,0.0,76,0.00,,---,0.00,VWS V12.08,2013-07-17 05:38:00,
2013-07-17 00:43:00,79.0,70.8,29.53,SSE,167,0.0,0.0,76,0.00,,---,0.00,VWS V12.08,2013-07-17 05:43:00,
2013-07-17 00:49:00,78.9,71.1,29.53,SSE,168,0.0,0.0,77,0.00,,---,0.00,VWS V12.08,2013-07-17 05:49:00,
2013-07-17 00:55:00,78.7,70.9,29.53,South,180,0.0,0.0,77,0.00,,---,0.00,VWS V12.08,2013-07-17 05:55:00,
2013-07-17 01:00:00,78.5,71.1,29.53,SSW,197,0.0,0.0,78,0.00,,---,0.00,VWS V12.08,2013-07-17 06:00:00,
2013-07-17 01:06:00,78.4,71.0,29.53,South,178,0.0,0.0,78,0.00,,---,0.00,VWS V12.08,2013-07-17 06:06:00,
2013-07-17 01:11:00,78.3,70.9,29.53,South,178,0.0,0.0,78,0.00,,---,0.00,VWS V12.08,2013-07-17 06:11:00,
2013-07-17 01:16:00,78.2,70.8,29.53,South,178,0.0,0.0,78,0.00,,---,0.00,VWS V12.08,2013-07-17 06:16:00,
2013-07-17 01:21:00,78.0,70.6,29.53,South,178,0.0,0.0,78,0.00,,---,0.00,VWS V12.08,2013-07-17 06:21:00,
2013-07-17 01:27:00,77.9,70.5,29.53,South,178,0.0,0.0,78,0.00,,---,0.00,VWS V12.08,2013-07-17 06:27:00,
2013-07-17 01:33:00,77.9,70.9,29.53,South,178,0.0,0.0,79,0.00,,---,0.00,VWS V12.08,2013-07-17 06:33:00,
2013-07-17 01:39:00,77.8,70.8,29.53,South,178,0.0,0.0,79,0.00,,---,0.00,VWS V12.08,2013-07-17 06:39:00,
2013-07-17 01:44:00,77.8,70.8,29.53,South,178,0.0,0.0,79,0.00,,---,0.00,VWS V12.08,2013-07-17 06:44:00,
2013-07-17 01:49:00,77.7,70.7,29.52,South,178,0.0,0.0,79,0.00,,---,0.00,VWS V12.08,2013-07-17 06:49:00,
2013-07-17 01:54:00,77.7,70.7,29.52,South,178,0.0,0.0,79,0.00,,---,0.00,VWS V12.08,2013-07-17 06:54:00,
2013-07-17 02:00:00,77.6,70.6,29.53,South,178,0.0,0.0,79,0.00,,---,0.00,VWS V12.08,2013-07-17 07:00:00,
2013-07-17 02:05:00,77.5,70.5,29.53,South,178,0.0,0.0,79,0.00,,---,0.00,VWS V12.08,2013-07-17 07:05:00,
2013-07-17 02:10:00,77.5,70.5,29.53,South,178,0.0,0.0,79,0.00,,---,0.00,VWS V12.08,2013-07-17 07:10:00,
2013-07-17 02:15:00,77.4,70.4,29.52,South,178,0.0,0.0,79,0.00,,---,0.00,VWS V12.08,2013-07-17 07:15:00,
2013-07-17 02:20:00,77.4,70.4,29.53,South,178,0.0,0.0,79,0.00,,---,0.00,VWS V12.08,2013-07-17 07:20:00,
2013-07-17 02:26:00,77.4,70.4,29.53,South,178,0.0,0.0,79,0.00,,---,0.00,VWS V12.08,2013-07-17 07:26:00,
2013-07-17 02:31:00,77.3,70.3,29.52,South,178,0.0,0.0,79,0.00,,---,0.00,VWS V12.08,2013-07-17 07:31:00,
2013-07-17 02:36:00,77.3,70.3,29.53,South,178,0.0,0.0,79,0.00,,---,0.00,VWS V12.08,2013-07-17 07:36:00,
2013-07-17 02:42:00,77.2,70.2,29.53,South,178,0.0,0.0,79,0.00,,---,0.00,VWS V12.08,2013-07-17 07:42:00,
2013-07-17 02:47:00,77.1,70.1,29.53,South,178,0.0,0.0,79,0.00,,---,0.00,VWS V12.08,2013-07-17 07:47:00,
2013-07-17 02:53:00,77.0,70.0,29.53,South,178,0.0,0.0,79,0.00,,---,0.00,VWS V12.08,2013-07-17 07:53:00,
2013-07-17 02:58:00,76.9,70.3,29.53,South,178,0.0,0.0,80,0.00,,---,0.00,VWS V12.08,2013-07-17 07:58:00,
2013-07-17 03:03:00,76.8,69.8,29.53,South,178,0.0,0.0,79,0.00,,---,0.00,VWS V12.08,2013-07-17 08:03:00,
2013-07-17 03:08:00,76.7,70.1,29.53,South,178,0.0,0.0,80,0.00,,---,0.00,VWS V12.08,2013-07-17 08:08:00,
2013-07-17 03:14:00,76.6,70.0,29.53,South,178,0.0,0.0,80,0.00,,---,0.00,VWS V12.08,2013-07-17 08:14:00,
2013-07-17 03:20:00,76.5,69.9,29.53,South,178,0.0,0.0,80,0.00,,---,0.00,VWS V12.08,2013-07-17 08:20:00,
2013-07-17 03:25:00,76.4,69.8,29.52,South,178,0.0,0.0,80,0.00,,---,0.00,VWS V12.08,2013-07-17 08:25:00,
2013-07-17 03:31:00,76.3,69.7,29.53,South,180,0.0,0.0,80,0.00,,---,0.00,VWS V12.08,2013-07-17 08:31:00,
2013-07-17 03:36:00,76.2,69.9,29.52,South,180,0.0,0.0,81,0.00,,---,0.00,VWS V12.08,2013-07-17 08:36:00,
2013-07-17 03:41:00,76.1,69.5,29.53,South,180,0.0,0.0,80,0.00,,---,0.00,VWS V12.08,2013-07-17 08:41:00,
2013-07-17 03:47:00,76.1,69.8,29.53,South,179,0.0,0.0,81,0.00,,---,0.00,VWS V12.08,2013-07-17 08:47:00,
2013-07-17 03:52:00,76.0,69.8,29.53,South,180,0.0,0.0,81,0.00,,---,0.00,VWS V12.08,2013-07-17 08:52:00,
2013-07-17 03:57:00,75.9,69.7,29.53,South,179,0.0,0.0,81,0.00,,---,0.00,VWS V12.08,2013-07-17 08:57:00,
2013-07-17 04:02:00,75.8,69.6,29.53,South,179,0.0,0.0,81,0.00,,---,0.00,VWS V12.08,2013-07-17 09:02:00,
2013-07-17 04:08:00,75.6,69.4,29.53,South,179,0.0,0.0,81,0.00,,---,0.00,VWS V12.08,2013-07-17 09:08:00,
2013-07-17 04:13:00,75.6,69.4,29.53,South,179,0.0,0.0,81,0.00,,---,0.00,VWS V12.08,2013-07-17 09:13:00,
2013-07-17 04:18:00,75.6,69.4,29.53,South,179,0.0,0.0,81,0.00,,---,0.00,VWS V12.08,2013-07-17 09:18:00,
2013-07-17 04:23:00,75.5,69.6,29.53,South,181,0.0,0.0,82,0.00,,---,0.00,VWS V12.08,2013-07-17 09:23:00,
2013-07-17 04:29:00,75.4,69.5,29.53,South,179,0.0,0.0,82,0.00,,---,0.00,VWS V12.08,2013-07-17 09:29:00,
2013-07-17 04:34:00,75.3,69.4,29.53,South,179,0.0,0.0,82,0.00,,---,0.00,VWS V12.08,2013-07-17 09:34:00,
2013-07-17 04:40:00,75.1,69.2,29.53,South,179,0.0,0.0,82,0.00,,---,0.00,VWS V12.08,2013-07-17 09:40:00,
2013-07-17 04:45:00,75.1,69.6,29.53,South,179,0.0,0.0,83,0.00,,---,0.00,VWS V12.08,2013-07-17 09:45:00,
2013-07-17 04:51:00,75.0,69.5,29.53,South,181,0.0,0.0,83,0.00,,---,0.00,VWS V12.08,2013-07-17 09:51:00,
2013-07-17 04:56:00,75.0,69.5,29.53,South,181,0.0,0.0,83,0.00,,---,0.00,VWS V12.08,2013-07-17 09:56:00,
2013-07-17 05:01:00,74.9,69.4,29.53,South,181,0.0,0.0,83,0.00,,---,0.00,VWS V12.08,2013-07-17 10:01:00,
2013-07-17 05:06:00,74.9,69.4,29.53,South,181,0.0,0.0,83,0.00,,---,0.00,VWS V12.08,2013-07-17 10:06:00,
2013-07-17 05:11:00,74.8,69.3,29.53,South,181,0.0,0.0,83,0.00,,---,0.00,VWS V12.08,2013-07-17 10:11:00,
2013-07-17 05:16:00,74.7,69.2,29.53,South,181,0.0,0.0,83,0.00,,---,0.00,VWS V12.08,2013-07-17 10:16:00,
2013-07-17 05:21:00,74.7,69.2,29.53,South,181,0.0,0.0,83,0.00,,---,0.00,VWS V12.08,2013-07-17 10:21:00,
2013-07-17 05:26:00,74.6,69.1,29.53,South,181,0.0,0.0,83,0.00,,---,0.00,VWS V12.08,2013-07-17 10:26:00,
2013-07-17 05:32:00,74.6,69.1,29.53,South,181,0.0,0.0,83,0.00,,---,0.00,VWS V12.08,2013-07-17 10:32:00,
2013-07-17 05:37:00,74.6,69.1,29.53,South,181,0.0,0.0,83,0.00,,---,0.00,VWS V12.08,2013-07-17 10:37:00,
2013-07-17 05:42:00,74.6,69.1,29.53,South,181,0.0,0.0,83,0.00,,---,0.00,VWS V12.08,2013-07-17 10:42:00,
2013-07-17 05:47:00,74.6,69.1,29.53,South,181,0.0,0.0,83,0.00,,---,0.00,VWS V12.08,2013-07-17 10:47:00,
2013-07-17 05:53:00,74.7,69.2,29.53,South,181,0.0,0.0,83,0.00,,---,0.00,VWS V12.08,2013-07-17 10:53:00,
2013-07-17 05:58:00,74.8,69.3,29.53,South,181,0.0,0.0,83,0.00,,---,0.00,VWS V12.08,2013-07-17 10:58:00,
2013-07-17 06:03:00,74.8,69.3,29.53,South,181,0.0,0.0,83,0.00,,---,0.00,VWS V12.08,2013-07-17 11:03:00,
2013-07-17 06:08:00,74.8,69.3,29.54,South,181,0.0,0.0,83,0.00,,---,0.00,VWS V12.08,2013-07-17 11:08:00,
2013-07-17 06:13:00,74.8,69.3,29.54,South,181,0.0,0.0,83,0.00,,---,0.00,VWS V12.08,2013-07-17 11:13:00,
2013-07-17 06:18:00,74.8,69.3,29.54,South,181,0.0,0.0,83,0.00,,---,0.00,VWS V12.08,2013-07-17 11:18:00,
2013-07-17 06:24:00,74.9,69.0,29.54,South,181,0.0,0.0,82,0.00,,---,0.00,VWS V12.08,2013-07-17 11:24:00,
2013-07-17 06:29:00,74.9,69.4,29.54,South,181,0.0,0.0,83,0.00,,---,0.00,VWS V12.08,2013-07-17 11:29:00,
2013-07-17 06:35:00,75.0,69.5,29.54,South,181,0.0,0.0,83,0.00,,---,0.00,VWS V12.08,2013-07-17 11:35:00,
2013-07-17 06:40:00,75.2,69.7,29.54,South,181,0.0,0.0,83,0.00,,---,0.00,VWS V12.08,2013-07-17 11:40:00,
2013-07-17 06:45:00,75.4,69.5,29.54,West,264,0.0,0.0,82,0.00,,---,0.00,VWS V12.08,2013-07-17 11:45:00,
2013-07-17 06:50:00,75.6,69.7,29.54,SSW,193,0.0,0.0,82,0.00,,---,0.00,VWS V12.08,2013-07-17 11:50:00,
2013-07-17 06:56:00,75.7,69.8,29.54,WSW,249,0.0,0.0,82,0.00,,---,0.00,VWS V12.08,2013-07-17 11:56:00,
2013-07-17 07:01:00,75.8,69.6,29.54,WSW,244,0.0,0.0,81,0.00,,---,0.00,VWS V12.08,2013-07-17 12:01:00,
2013-07-17 07:06:00,76.0,69.8,29.55,SSW,212,0.0,0.0,81,0.00,,---,0.00,VWS V12.08,2013-07-17 12:06:00,
2013-07-17 07:11:00,76.3,70.1,29.55,SSW,209,0.0,0.0,81,0.00,,---,0.00,VWS V12.08,2013-07-17 12:11:00,
2013-07-17 07:17:00,76.5,69.9,29.55,West,266,0.0,0.0,80,0.00,,---,0.00,VWS V12.08,2013-07-17 12:17:00,
2013-07-17 07:22:00,76.8,70.2,29.55,West,276,0.0,0.0,80,0.00,,---,0.00,VWS V12.08,2013-07-17 12:22:00,
2013-07-17 07:28:00,77.0,70.4,29.55,WNW,294,0.0,1.0,80,0.00,,---,0.00,VWS V12.08,2013-07-17 12:28:00,
2013-07-17 07:33:00,77.1,70.1,29.55,West,268,0.0,1.0,79,0.00,,---,0.00,VWS V12.08,2013-07-17 12:33:00,
2013-07-17 07:38:00,77.3,70.3,29.55,WSW,256,0.0,1.0,79,0.00,,---,0.00,VWS V12.08,2013-07-17 12:38:00,
2013-07-17 07:43:00,77.4,70.4,29.55,WNW,286,0.0,1.0,79,0.00,,---,0.00,VWS V12.08,2013-07-17 12:43:00,
2013-07-17 07:48:00,77.6,70.2,29.55,WNW,290,0.0,1.0,78,0.00,,---,0.00,VWS V12.08,2013-07-17 12:48:00,
2013-07-17 07:54:00,77.8,70.4,29.56,NW,305,0.0,1.0,78,0.00,,---,0.00,VWS V12.08,2013-07-17 12:54:00,
2013-07-17 08:00:00,78.1,70.7,29.56,WNW,300,0.0,1.0,78,0.00,,---,0.00,VWS V12.08,2013-07-17 13:00:00,
2013-07-17 08:05:00,78.5,70.7,29.56,NNW,339,0.0,1.0,77,0.00,,---,0.00,VWS V12.08,2013-07-17 13:05:00,
2013-07-17 08:10:00,78.8,70.6,29.56,West,274,0.0,1.0,76,0.00,,---,0.00,VWS V12.08,2013-07-17 13:10:00,
2013-07-17 08:15:00,79.1,70.5,29.56,NW,319,0.0,1.0,75,0.00,,---,0.00,VWS V12.08,2013-07-17 13:15:00,
2013-07-17 08:21:00,79.3,70.7,29.56,West,261,0.0,1.0,75,0.00,,---,0.00,VWS V12.08,2013-07-17 13:21:00,
2013-07-17 08:26:00,79.7,71.1,29.56,West,275,0.0,1.0,75,0.00,,---,0.00,VWS V12.08,2013-07-17 13:26:00,
2013-07-17 08:31:00,80.1,71.1,29.56,WNW,298,0.0,1.0,74,0.00,,---,0.00,VWS V12.08,2013-07-17 13:31:00,
2013-07-17 08:36:00,80.5,71.5,29.56,West,281,0.0,1.0,74,0.00,,---,0.00,VWS V12.08,2013-07-17 13:36:00,
2013-07-17 08:42:00,80.6,70.8,29.56,NNW,330,0.0,1.0,72,0.00,,---,0.00,VWS V12.08,2013-07-17 13:42:00,
2013-07-17 08:47:00,80.8,70.9,29.56,WNW,298,0.0,1.0,72,0.00,,---,0.00,VWS V12.08,2013-07-17 13:47:00,
2013-07-17 08:52:00,81.0,71.1,29.56,NW,309,0.0,1.0,72,0.00,,---,0.00,VWS V12.08,2013-07-17 13:52:00,
2013-07-17 08:57:00,81.5,71.2,29.56,NW,322,0.0,1.0,71,0.00,,---,0.00,VWS V12.08,2013-07-17 13:57:00,
2013-07-17 09:02:00,81.6,70.9,29.56,North,353,0.0,1.0,70,0.00,,---,0.00,VWS V12.08,2013-07-17 14:02:00,
2013-07-17 09:07:00,82.1,70.9,29.56,North,355,0.0,1.0,69,0.00,,---,0.00,VWS V12.08,2013-07-17 14:07:00,
2013-07-17 09:12:00,82.3,71.1,29.56,WNW,303,0.0,1.0,69,0.00,,---,0.00,VWS V12.08,2013-07-17 14:12:00,
2013-07-17 09:17:00,82.2,71.0,29.56,WSW,252,0.0,1.0,69,0.00,,---,0.00,VWS V12.08,2013-07-17 14:17:00,
2013-07-17 09:22:00,82.9,71.7,29.56,NNW,337,0.0,1.0,69,0.00,,---,0.00,VWS V12.08,2013-07-17 14:22:00,
2013-07-17 09:27:00,83.6,71.1,29.56,NNW,333,0.0,1.0,66,0.00,,---,0.00,VWS V12.08,2013-07-17 14:27:00,
2013-07-17 09:32:00,83.7,71.6,29.56,WNW,284,0.0,1.0,67,0.00,,---,0.00,VWS V12.08,2013-07-17 14:32:00,
2013-07-17 09:37:00,84.1,72.0,29.56,WNW,295,0.0,1.0,67,0.00,,---,0.00,VWS V12.08,2013-07-17 14:37:00,
2013-07-17 09:43:00,84.7,72.1,29.56,NNW,341,1.0,1.0,66,0.00,,---,0.00,VWS V12.08,2013-07-17 14:43:00,
2013-07-17 09:48:00,84.9,71.4,29.56,NW,316,0.0,1.0,64,0.00,,---,0.00,VWS V12.08,2013-07-17 14:48:00,
2013-07-17 09:54:00,85.2,71.2,29.56,NNW,333,0.0,1.0,63,0.00,,---,0.00,VWS V12.08,2013-07-17 14:54:00,
2013-07-17 10:00:00,85.7,71.7,29.56,NNW,343,0.0,1.0,63,0.00,,---,0.00,VWS V12.08,2013-07-17 15:00:00,
2013-07-17 10:09:00,86.8,71.3,29.56,NW,306,0.0,1.0,60,0.00,,---,0.00,VWS V12.08,2013-07-17 15:09:00,
2013-07-17 10:14:00,87.3,70.7,29.56,NNW,331,0.0,1.0,58,0.00,,---,0.00,VWS V12.08,2013-07-17 15:14:00,
2013-07-17 10:20:00,87.4,71.3,29.56,NW,323,0.0,1.0,59,0.00,,---,0.00,VWS V12.08,2013-07-17 15:20:00,
2013-07-17 10:25:00,88.0,71.9,29.56,NW,318,0.0,1.0,59,0.00,,---,0.00,VWS V12.08,2013-07-17 15:25:00,
2013-07-17 10:30:00,87.6,71.5,29.56,NW,319,0.0,1.0,59,0.00,,---,0.00,VWS V12.08,2013-07-17 15:30:00,
2013-07-17 10:35:00,87.2,71.6,29.55,NNW,328,0.0,0.0,60,0.00,,---,0.00,VWS V12.08,2013-07-17 15:35:00,
2013-07-17 10:41:00,88.2,72.1,29.55,NW,320,0.0,1.0,59,0.00,,---,0.00,VWS V12.08,2013-07-17 15:41:00,
2013-07-17 10:46:00,88.9,72.2,29.55,NW,326,0.0,1.0,58,0.00,,---,0.00,VWS V12.08,2013-07-17 15:46:00,
2013-07-17 10:51:00,89.3,71.6,29.55,North,354,0.0,1.0,56,0.00,,---,0.00,VWS V12.08,2013-07-17 15:51:00,
2013-07-17 10:56:00,89.3,71.6,29.56,North,351,0.0,1.0,56,0.00,,---,0.00,VWS V12.08,2013-07-17 15:56:00,
2013-07-17 11:02:00,89.6,71.3,29.56,NNW,342,0.0,0.0,55,0.00,,---,0.00,VWS V12.08,2013-07-17 16:02:00,
2013-07-17 11:07:00,89.7,71.9,29.55,West,278,0.0,0.0,56,0.00,,---,0.00,VWS V12.08,2013-07-17 16:07:00,
2013-07-17 11:12:00,89.8,72.0,29.55,NNW,348,0.0,1.0,56,0.00,,---,0.00,VWS V12.08,2013-07-17 16:12:00,
2013-07-17 11:17:00,90.0,71.1,29.55,NW,324,1.0,1.0,54,0.00,,---,0.00,VWS V12.08,2013-07-17 16:17:00,
2013-07-17 11:22:00,89.9,71.0,29.55,NW,306,0.0,1.0,54,0.00,,---,0.00,VWS V12.08,2013-07-17 16:22:00,
2013-07-17 11:25:00,89.5,70.1,29.55,NW,304,0.0,1.0,53,0.00,,---,0.00,VWS V12.08,2013-07-17 16:25:00,
2013-07-17 11:30:00,89.4,70.6,29.55,NW,309,0.0,1.0,54,0.00,,---,0.00,VWS V12.08,2013-07-17 16:30:00,
2013-07-17 11:36:00,89.3,71.0,29.55,West,268,0.0,1.0,55,0.00,,---,0.00,VWS V12.08,2013-07-17 16:36:00,
2013-07-17 11:41:00,89.4,70.6,29.55,West,265,0.0,1.0,54,0.00,,---,0.00,VWS V12.08,2013-07-17 16:41:00,
2013-07-17 11:46:00,89.6,69.7,29.55,WNW,288,0.0,1.0,52,0.00,,---,0.00,VWS V12.08,2013-07-17 16:46:00,
2013-07-17 11:51:00,90.1,70.1,29.56,NNW,338,0.0,1.0,52,0.00,,---,0.00,VWS V12.08,2013-07-17 16:51:00,
2013-07-17 11:56:00,90.8,70.2,29.55,NNW,345,0.0,1.0,51,0.00,,---,0.00,VWS V12.08,2013-07-17 16:56:00,
2013-07-17 12:02:00,90.8,70.8,29.55,South,174,0.0,0.0,52,0.00,,---,0.00,VWS V12.08,2013-07-17 17:02:00,
2013-07-17 12:07:00,90.3,70.9,29.55,WSW,257,0.0,0.0,53,0.00,,---,0.00,VWS V12.08,2013-07-17 17:07:00,
2013-07-17 12:12:00,90.3,70.3,29.55,West,266,0.0,1.0,52,0.00,,---,0.00,VWS V12.08,2013-07-17 17:12:00,
2013-07-17 12:17:00,90.1,70.1,29.55,WSW,244,0.0,1.0,52,0.00,,---,0.00,VWS V12.08,2013-07-17 17:17:00,
2013-07-17 12:22:00,90.3,70.3,29.55,WSW,247,0.0,1.0,52,0.00,,---,0.00,VWS V12.08,2013-07-17 17:22:00,
2013-07-17 12:27:00,90.7,68.9,29.55,WSW,237,0.0,1.0,49,0.00,,---,0.00,VWS V12.08,2013-07-17 17:27:00,
2013-07-17 12:32:00,91.3,69.5,29.55,SW,234,0.0,0.0,49,0.00,,---,0.00,VWS V12.08,2013-07-17 17:32:00,
2013-07-17 12:37:00,92.4,70.5,29.55,West,281,0.0,1.0,49,0.00,,---,0.00,VWS V12.08,2013-07-17 17:37:00,
2013-07-17 12:42:00,92.0,71.3,29.55,South,182,0.0,1.0,51,0.00,,---,0.00,VWS V12.08,2013-07-17 17:42:00,
2013-07-17 12:48:00,91.9,71.2,29.54,South,187,0.0,1.0,51,0.00,,---,0.00,VWS V12.08,2013-07-17 17:48:00,
2013-07-17 12:53:00,91.8,69.9,29.54,WNW,283,0.0,2.0,49,0.00,,---,0.00,VWS V12.08,2013-07-17 17:53:00,
2013-07-17 12:58:00,90.8,69.6,29.54,WSW,253,0.0,2.0,50,0.00,,---,0.00,VWS V12.08,2013-07-17 17:58:00,
2013-07-17 13:03:00,90.3,70.3,29.54,West,278,0.0,0.0,52,0.00,,---,0.00,VWS V12.08,2013-07-17 18:03:00,
2013-07-17 13:08:00,90.6,70.6,29.54,NW,323,0.0,1.0,52,0.00,,---,0.00,VWS V12.08,2013-07-17 18:08:00,
2013-07-17 13:13:00,90.2,70.8,29.54,NW,306,0.0,1.0,53,0.00,,---,0.00,VWS V12.08,2013-07-17 18:13:00,
2013-07-17 13:18:00,90.4,70.4,29.53,SW,215,0.0,1.0,52,0.00,,---,0.00,VWS V12.08,2013-07-17 18:18:00,
2013-07-17 13:23:00,90.6,70.6,29.53,NW,307,0.0,1.0,52,0.00,,---,0.00,VWS V12.08,2013-07-17 18:23:00,
2013-07-17 13:29:00,90.7,70.1,29.53,WNW,291,0.0,1.0,51,0.00,,---,0.00,VWS V12.08,2013-07-17 18:29:00,
2013-07-17 13:34:00,91.2,70.0,29.53,NNW,339,0.0,0.0,50,0.00,,---,0.00,VWS V12.08,2013-07-17 18:34:00,
2013-07-17 13:39:00,92.0,70.1,29.53,WNW,303,0.0,1.0,49,0.00,,---,0.00,VWS V12.08,2013-07-17 18:39:00,
2013-07-17 13:44:00,92.4,70.5,29.53,NNW,346,0.0,1.0,49,0.00,,---,0.00,VWS V12.08,2013-07-17 18:44:00,
2013-07-17 13:49:00,91.7,69.8,29.52,NNW,333,0.0,1.0,49,0.00,,---,0.00,VWS V12.08,2013-07-17 18:49:00,
2013-07-17 13:54:00,91.8,69.9,29.52,NW,309,0.0,1.0,49,0.00,,---,0.00,VWS V12.08,2013-07-17 18:54:00,
2013-07-17 13:59:00,91.7,69.2,29.52,WSW,240,0.0,1.0,48,0.00,,---,0.00,VWS V12.08,2013-07-17 18:59:00,
2013-07-17 14:04:00,90.9,69.1,29.52,NNW,341,0.0,1.0,49,0.00,,---,0.00,VWS V12.08,2013-07-17 19:04:00,
2013-07-17 14:09:00,91.7,69.8,29.52,SSW,202,0.0,1.0,49,0.00,,---,0.00,VWS V12.08,2013-07-17 19:09:00,
2013-07-17 14:15:00,92.2,70.3,29.51,West,271,0.0,1.0,49,0.00,,---,0.00,VWS V12.08,2013-07-17 19:15:00,
2013-07-17 14:20:00,92.1,69.6,29.51,SSE,167,0.0,1.0,48,0.00,,---,0.00,VWS V12.08,2013-07-17 19:20:00,
2013-07-17 14:25:00,91.7,69.8,29.51,South,180,0.0,1.0,49,0.00,,---,0.00,VWS V12.08,2013-07-17 19:25:00,
2013-07-17 14:30:00,92.2,70.9,29.51,West,277,0.0,0.0,50,0.00,,---,0.00,VWS V12.08,2013-07-17 19:30:00,
2013-07-17 14:35:00,92.5,70.6,29.50,SW,224,0.0,0.0,49,0.00,,---,0.00,VWS V12.08,2013-07-17 19:35:00,
2013-07-17 14:41:00,92.5,70.6,29.50,SSE,157,0.0,0.0,49,0.00,,---,0.00,VWS V12.08,2013-07-17 19:41:00,
2013-07-17 14:46:00,92.6,70.7,29.50,SW,217,0.0,0.0,49,0.00,,---,0.00,VWS V12.08,2013-07-17 19:46:00,
2013-07-17 14:51:00,93.2,71.2,29.50,WSW,252,0.0,0.0,49,0.00,,---,0.00,VWS V12.08,2013-07-17 19:51:00,
2013-07-17 14:56:00,93.2,71.2,29.50,South,187,0.0,1.0,49,0.00,,---,0.00,VWS V12.08,2013-07-17 19:56:00,
2013-07-17 15:01:00,92.9,70.3,29.50,SW,216,0.0,0.0,48,0.00,,---,0.00,VWS V12.08,2013-07-17 20:01:00,
2013-07-17 15:06:00,93.0,71.0,29.50,ESE,117,0.0,0.0,49,0.00,,---,0.00,VWS V12.08,2013-07-17 20:06:00,
2013-07-17 15:11:00,92.4,70.5,29.50,SSW,196,0.0,0.0,49,0.00,,---,0.00,VWS V12.08,2013-07-17 20:11:00,
2013-07-17 15:16:00,92.4,70.5,29.49,SSW,210,0.0,0.0,49,0.00,,---,0.00,VWS V12.08,2013-07-17 20:16:00,
2013-07-17 15:21:00,93.1,70.5,29.49,SW,221,0.0,0.0,48,0.00,,---,0.00,VWS V12.08,2013-07-17 20:21:00,
2013-07-17 15:27:00,93.4,71.4,29.49,SSW,198,0.0,0.0,49,0.00,,---,0.00,VWS V12.08,2013-07-17 20:27:00,
2013-07-17 15:32:00,93.6,70.3,29.49,SE,129,0.0,0.0,47,0.00,,---,0.00,VWS V12.08,2013-07-17 20:32:00,
2013-07-17 15:37:00,93.5,70.3,29.49,WSW,253,0.0,1.0,47,0.00,,---,0.00,VWS V12.08,2013-07-17 20:37:00,
2013-07-17 15:42:00,93.5,69.6,29.49,North,351,0.0,1.0,46,0.00,,---,0.00,VWS V12.08,2013-07-17 20:42:00,
2013-07-17 15:47:00,93.7,69.2,29.49,SW,231,0.0,1.0,45,0.00,,---,0.00,VWS V12.08,2013-07-17 20:47:00,
2013-07-17 15:52:00,93.8,69.9,29.48,SSE,165,0.0,1.0,46,0.00,,---,0.00,VWS V12.08,2013-07-17 20:52:00,
2013-07-17 15:57:00,93.4,69.5,29.49,SSW,196,0.0,1.0,46,0.00,,---,0.00,VWS V12.08,2013-07-17 20:57:00,
2013-07-17 16:02:00,93.2,69.4,29.48,SSW,207,0.0,0.0,46,0.00,,---,0.00,VWS V12.08,2013-07-17 21:02:00,
2013-07-17 16:07:00,92.8,69.6,29.48,SSW,198,0.0,0.0,47,0.00,,---,0.00,VWS V12.08,2013-07-17 21:07:00,
2013-07-17 16:12:00,92.5,69.3,29.48,SW,228,0.0,0.0,47,0.00,,---,0.00,VWS V12.08,2013-07-17 21:12:00,
2013-07-17 16:17:00,92.7,70.2,29.48,West,278,0.0,1.0,48,0.00,,---,0.00,VWS V12.08,2013-07-17 21:17:00,
2013-07-17 16:23:00,93.1,69.9,29.48,SSE,148,0.0,1.0,47,0.00,,---,0.00,VWS V12.08,2013-07-17 21:23:00,
2013-07-17 16:28:00,92.6,70.1,29.48,West,274,0.0,1.0,48,0.00,,---,0.00,VWS V12.08,2013-07-17 21:28:00,
2013-07-17 16:33:00,92.1,69.6,29.48,ESE,120,0.0,0.0,48,0.00,,---,0.00,VWS V12.08,2013-07-17 21:33:00,
2013-07-17 16:39:00,91.9,70.6,29.48,West,260,0.0,0.0,50,0.00,,---,0.00,VWS V12.08,2013-07-17 21:39:00,
2013-07-17 16:44:00,92.1,70.8,29.47,East,98,0.0,1.0,50,0.00,,---,0.00,VWS V12.08,2013-07-17 21:44:00,
2013-07-17 16:49:00,92.4,70.5,29.47,SSW,200,0.0,1.0,49,0.00,,---,0.00,VWS V12.08,2013-07-17 21:49:00,
2013-07-17 16:54:00,92.5,70.6,29.47,SW,227,0.0,1.0,49,0.00,,---,0.00,VWS V12.08,2013-07-17 21:54:00,
2013-07-17 16:59:00,92.7,70.2,29.47,ESE,118,0.0,1.0,48,0.00,,---,0.00,VWS V12.08,2013-07-17 21:59:00,
2013-07-17 17:04:00,92.8,69.6,29.47,SSW,192,0.0,0.0,47,0.00,,---,0.00,VWS V12.08,2013-07-17 22:04:00,
2013-07-17 17:10:00,92.9,69.7,29.47,SE,146,0.0,0.0,47,0.00,,---,0.00,VWS V12.08,2013-07-17 22:10:00,
2013-07-17 17:15:00,92.8,69.6,29.47,SSE,154,0.0,0.0,47,0.00,,---,0.00,VWS V12.08,2013-07-17 22:15:00,
2013-07-17 17:21:00,92.5,70.0,29.46,West,279,0.0,0.0,48,0.00,,---,0.00,VWS V12.08,2013-07-17 22:21:00,
2013-07-17 17:26:00,92.6,69.4,29.46,South,185,0.0,0.0,47,0.00,,---,0.00,VWS V12.08,2013-07-17 22:26:00,
2013-07-17 17:31:00,92.6,69.4,29.46,SSW,207,0.0,0.0,47,0.00,,---,0.00,VWS V12.08,2013-07-17 22:31:00,
2013-07-17 17:36:00,92.7,68.9,29.46,ESE,113,0.0,0.0,46,0.00,,---,0.00,VWS V12.08,2013-07-17 22:36:00,
2013-07-17 17:41:00,92.6,69.4,29.46,South,188,0.0,0.0,47,0.00,,---,0.00,VWS V12.08,2013-07-17 22:41:00,
2013-07-17 17:46:00,92.4,69.3,29.46,SE,135,0.0,0.0,47,0.00,,---,0.00,VWS V12.08,2013-07-17 22:46:00,
2013-07-17 17:51:00,92.3,69.2,29.46,South,171,0.0,0.0,47,0.00,,---,0.00,VWS V12.08,2013-07-17 22:51:00,
2013-07-17 17:56:00,92.3,69.2,29.46,West,262,0.0,0.0,47,0.00,,---,0.00,VWS V12.08,2013-07-17 22:56:00,
2013-07-17 18:01:00,92.4,69.9,29.46,SE,138,0.0,0.0,48,0.00,,---,0.00,VWS V12.08,2013-07-17 23:01:00,
2013-07-17 18:06:00,92.2,69.1,29.46,North,358,0.0,0.0,47,0.00,,---,0.00,VWS V12.08,2013-07-17 23:06:00,
2013-07-17 18:11:00,92.1,69.0,29.46,SE,146,0.0,0.0,47,0.00,,---,0.00,VWS V12.08,2013-07-17 23:11:00,
2013-07-17 18:16:00,92.2,69.1,29.45,North,0,0.0,1.0,47,0.00,,---,0.00,VWS V12.08,2013-07-17 23:16:00,
2013-07-17 18:21:00,92.3,69.8,29.46,WSW,238,0.0,1.0,48,0.00,,---,0.00,VWS V12.08,2013-07-17 23:21:00,
2013-07-17 18:26:00,92.2,70.3,29.45,SSW,200,0.0,1.0,49,0.00,,---,0.00,VWS V12.08,2013-07-17 23:26:00,
2013-07-17 18:31:00,92.3,70.4,29.45,SSE,160,0.0,0.0,49,0.00,,---,0.00,VWS V12.08,2013-07-17 23:31:00,
2013-07-17 18:36:00,92.1,70.2,29.45,ESE,108,0.0,0.0,49,0.00,,---,0.00,VWS V12.08,2013-07-17 23:36:00,
2013-07-17 18:41:00,91.9,70.6,29.45,SSE,168,0.0,0.0,50,0.00,,---,0.00,VWS V12.08,2013-07-17 23:41:00,
2013-07-17 18:46:00,91.5,70.8,29.45,SSW,194,0.0,0.0,51,0.00,,---,0.00,VWS V12.08,2013-07-17 23:46:00,
2013-07-17 18:51:00,91.2,70.6,29.45,SSW,197,0.0,1.0,51,0.00,,---,0.00,VWS V12.08,2013-07-17 23:51:00,
2013-07-17 18:56:00,91.0,70.9,29.45,SW,217,0.0,1.0,52,0.00,,---,0.00,VWS V12.08,2013-07-17 23:56:00,
2013-07-17 19:01:00,90.9,71.4,29.45,WSW,237,0.0,0.0,53,0.00,,---,0.00,VWS V12.08,2013-07-18 00:01:00,
2013-07-17 19:07:00,90.4,71.5,29.45,WNW,296,0.0,0.0,54,0.00,,---,0.00,VWS V12.08,2013-07-18 00:07:00,
2013-07-17 19:12:00,90.2,71.9,29.44,SSW,195,0.0,1.0,55,0.00,,---,0.00,VWS V12.08,2013-07-18 00:12:00,
2013-07-17 19:17:00,89.9,72.1,29.44,SSW,202,0.0,1.0,56,0.00,,---,0.00,VWS V12.08,2013-07-18 00:17:00,
2013-07-17 19:22:00,89.8,72.0,29.45,SSW,197,0.0,1.0,56,0.00,,---,0.00,VWS V12.08,2013-07-18 00:22:00,
2013-07-17 19:27:00,89.4,72.2,29.45,SSW,206,0.0,1.0,57,0.00,,---,0.00,VWS V12.08,2013-07-18 00:27:00,
2013-07-17 19:32:00,88.8,72.1,29.45,SSW,212,0.0,0.0,58,0.00,,---,0.00,VWS V12.08,2013-07-18 00:32:00,
2013-07-17 19:37:00,88.2,72.1,29.45,SW,221,0.0,0.0,59,0.00,,---,0.00,VWS V12.08,2013-07-18 00:37:00,
2013-07-17 19:43:00,87.8,71.7,29.45,SW,230,0.0,0.0,59,0.00,,---,0.00,VWS V12.08,2013-07-18 00:43:00,
2013-07-17 19:49:00,87.7,72.1,29.45,SSW,210,0.0,0.0,60,0.00,,---,0.00,VWS V12.08,2013-07-18 00:49:00,
2013-07-17 19:54:00,87.4,71.8,29.45,SSW,210,0.0,0.0,60,0.00,,---,0.00,VWS V12.08,2013-07-18 00:54:00,
2013-07-17 19:59:00,87.2,71.6,29.45,SW,226,0.0,0.0,60,0.00,,---,0.00,VWS V12.08,2013-07-18 00:59:00,
2013-07-17 20:04:00,86.9,71.8,29.45,WSW,258,0.0,0.0,61,0.00,,---,0.00,VWS V12.08,2013-07-18 01:04:00,
2013-07-17 20:09:00,86.6,72.0,29.45,SW,217,0.0,0.0,62,0.00,,---,0.00,VWS V12.08,2013-07-18 01:09:00,
2013-07-17 20:14:00,86.4,72.3,29.45,SW,218,0.0,0.0,63,0.00,,---,0.00,VWS V12.08,2013-07-18 01:14:00,
2013-07-17 20:19:00,86.2,72.1,29.44,SW,219,0.0,0.0,63,0.00,,---,0.00,VWS V12.08,2013-07-18 01:19:00,
2013-07-17 20:24:00,86.0,72.4,29.44,SW,219,0.0,0.0,64,0.00,,---,0.00,VWS V12.08,2013-07-18 01:24:00,
2013-07-17 20:29:00,85.9,72.3,29.44,West,275,0.0,0.0,64,0.00,,---,0.00,VWS V12.08,2013-07-18 01:29:00,
2013-07-17 20:34:00,85.8,72.2,29.44,SW,223,0.0,0.0,64,0.00,,---,0.00,VWS V12.08,2013-07-18 01:34:00,
2013-07-17 20:39:00,85.6,72.0,29.44,WSW,240,0.0,0.0,64,0.00,,---,0.00,VWS V12.08,2013-07-18 01:39:00,
2013-07-17 20:44:00,85.5,71.9,29.44,WNW,284,0.0,0.0,64,0.00,,---,0.00,VWS V12.08,2013-07-18 01:44:00,
2013-07-17 20:49:00,85.4,71.8,29.44,WNW,283,0.0,0.0,64,0.00,,---,0.00,VWS V12.08,2013-07-18 01:49:00,
2013-07-17 20:54:00,85.2,71.7,29.44,WSW,240,0.0,0.0,64,0.00,,---,0.00,VWS V12.08,2013-07-18 01:54:00,
2013-07-17 20:59:00,85.1,72.0,29.45,WSW,242,0.0,0.0,65,0.00,,---,0.00,VWS V12.08,2013-07-18 01:59:00,
2013-07-17 21:04:00,85.0,71.9,29.44,WSW,254,0.0,0.0,65,0.00,,---,0.00,VWS V12.08,2013-07-18 02:04:00,
2013-07-17 21:09:00,84.8,72.2,29.44,SW,225,0.0,0.0,66,0.00,,---,0.00,VWS V12.08,2013-07-18 02:09:00,
2013-07-17 21:14:00,84.6,72.0,29.44,SW,229,0.0,0.0,66,0.00,,---,0.00,VWS V12.08,2013-07-18 02:14:00,
2013-07-17 21:19:00,84.5,71.9,29.44,SW,221,0.0,0.0,66,0.00,,---,0.00,VWS V12.08,2013-07-18 02:19:00,
2013-07-17 21:24:00,84.4,71.8,29.44,SW,231,0.0,0.0,66,0.00,,---,0.00,VWS V12.08,2013-07-18 02:24:00,
2013-07-17 21:29:00,84.3,72.2,29.45,NNW,341,0.0,1.0,67,0.00,,---,0.00,VWS V12.08,2013-07-18 02:29:00,
2013-07-17 21:34:00,84.0,71.9,29.45,NNW,327,0.0,0.0,67,0.00,,---,0.00,VWS V12.08,2013-07-18 02:34:00,
2013-07-17 21:39:00,83.6,71.9,29.45,NW,316,0.0,1.0,68,0.00,,---,0.00,VWS V12.08,2013-07-18 02:39:00,
2013-07-17 21:44:00,83.4,72.2,29.45,NNW,345,0.0,1.0,69,0.00,,---,0.00,VWS V12.08,2013-07-18 02:44:00,
2013-07-17 21:50:00,83.4,71.7,29.45,WNW,301,0.0,1.0,68,0.00,,---,0.00,VWS V12.08,2013-07-18 02:50:00,
2013-07-17 21:56:00,83.4,71.7,29.45,NNW,347,0.0,1.0,68,0.00,,---,0.00,VWS V12.08,2013-07-18 02:56:00,
2013-07-17 22:01:00,83.4,71.7,29.45,North,353,0.0,0.0,68,0.00,,---,0.00,VWS V12.08,2013-07-18 03:01:00,
2013-07-17 22:06:00,83.3,71.6,29.45,NNW,335,0.0,0.0,68,0.00,,---,0.00,VWS V12.08,2013-07-18 03:06:00,
2013-07-17 22:12:00,83.2,71.6,29.45,North,349,0.0,0.0,68,0.00,,---,0.00,VWS V12.08,2013-07-18 03:12:00,
2013-07-17 22:17:00,83.2,71.6,29.45,NW,322,0.0,0.0,68,0.00,,---,0.00,VWS V12.08,2013-07-18 03:17:00,
2013-07-17 22:22:00,83.0,71.4,29.45,WNW,291,0.0,0.0,68,0.00,,---,0.00,VWS V12.08,2013-07-18 03:22:00,
2013-07-17 22:27:00,82.8,71.6,29.45,West,281,0.0,0.0,69,0.00,,---,0.00,VWS V12.08,2013-07-18 03:27:00,
2013-07-17 22:32:00,82.7,71.5,29.46,WNW,298,0.0,0.0,69,0.00,,---,0.00,VWS V12.08,2013-07-18 03:32:00,
2013-07-17 22:38:00,82.6,71.4,29.46,WNW,286,0.0,0.0,69,0.00,,---,0.00,VWS V12.08,2013-07-18 03:38:00,
2013-07-17 22:44:00,82.5,70.9,29.45,NNW,336,0.0,0.0,68,0.00,,---,0.00,VWS V12.08,2013-07-18 03:44:00,
2013-07-17 22:49:00,82.5,71.3,29.45,NW,321,0.0,0.0,69,0.00,,---,0.00,VWS V12.08,2013-07-18 03:49:00,
2013-07-17 22:54:00,82.4,71.2,29.46,NNW,346,0.0,0.0,69,0.00,,---,0.00,VWS V12.08,2013-07-18 03:54:00,
2013-07-17 22:59:00,82.4,71.2,29.45,WNW,292,0.0,0.0,69,0.00,,---,0.00,VWS V12.08,2013-07-18 03:59:00,
2013-07-17 23:01:00,82.4,70.8,29.45,WNW,287,0.0,0.0,68,0.00,,---,0.00,VWS V12.08,2013-07-18 04:01:00,
2013-07-17 23:02:00,82.4,70.8,29.45,NW,310,0.0,0.0,68,0.00,,---,0.00,VWS V12.08,2013-07-18 04:02:00,
2013-07-17 23:03:00,82.4,70.8,29.45,WNW,283,0.0,0.0,68,0.00,,---,0.00,VWS V12.08,2013-07-18 04:03:00,
2013-07-17 23:04:00,82.4,70.8,29.45,WNW,282,0.0,0.0,68,0.00,,---,0.00,VWS V12.08,2013-07-18 04:04:00,
2013-07-17 23:08:00,82.3,71.1,29.45,NW,310,0.0,0.0,69,0.00,,---,0.00,VWS V12.08,2013-07-18 04:08:00,
2013-07-17 23:13:00,82.2,71.0,29.46,West,279,0.0,0.0,69,0.00,,---,0.00,VWS V12.08,2013-07-18 04:13:00,
2013-07-17 23:19:00,81.9,71.2,29.45,WNW,301,0.0,0.0,70,0.00,,---,0.00,VWS V12.08,2013-07-18 04:19:00,
2013-07-17 23:24:00,81.8,71.1,29.45,West,280,0.0,0.0,70,0.00,,---,0.00,VWS V12.08,2013-07-18 04:24:00,
2013-07-17 23:29:00,81.6,70.9,29.45,NNW,333,0.0,0.0,70,0.00,,---,0.00,VWS V12.08,2013-07-18 04:29:00,
2013-07-17 23:34:00,81.5,71.2,29.45,WNW,295,0.0,0.0,71,0.00,,---,0.00,VWS V12.08,2013-07-18 04:34:00,
2013-07-17 23:40:00,81.3,71.4,29.45,West,281,0.0,0.0,72,0.00,,---,0.00,VWS V12.08,2013-07-18 04:40:00,
2013-07-17 23:45:00,81.1,71.2,29.45,NW,306,0.0,0.0,72,0.00,,---,0.00,VWS V12.08,2013-07-18 04:45:00,
2013-07-17 23:51:00,80.9,71.4,29.45,WNW,286,0.0,0.0,73,0.00,,---,0.00,VWS V12.08,2013-07-18 04:51:00,
2013-07-17 23:56:00,80.7,71.2,29.45,North,359,0.0,0.0,73,0.00,,---,0.00,VWS V12.08,2013-07-18 04:56:00,